George Downer Airport

Jump to: basic info | weather | frequencies | runways | comments

Related pages: nearby airports | nearby navaids | notams | map

Basic information (top)

Codes: AIV KAIV
Location: lon 33.106499, lat -88.197800, elev 150 ft / 46 m msl
Status: small_airport

Weather (top)

Current conditions for Golden Triangle Regional Airport 29nm (53km) NW (rec'd 2014/07/30 06:35Z):

KGTR 300635Z 00000KT 10SM CLR 14/12 A3009 RMK AO1

Airport forecast for Golden Triangle Regional Airport 29nm (53km) NW (rec'd 2014/07/30 06:21Z):

TAF KGTR 300520Z 3006/3106 00000KT P6SM SCT250 
     FM301400 35005KT P6SM BKN250

Frequencies (top)

Verify before use: may be inaccurate or out of date.

UNIC: 122.8 MHz (CTAF/UNICOM)

Runways (top)

06/24: 4,970 x 80 ft (1,515 x 24 m) — paved — lighted — threshold 06 displaced 200 ft (61 m) — threshold 24 displaced 615 ft (187 m)

Latest comments (top)

No comments yet for George Downer Airport

More... (top)

See also NOTAMs and nearby airports and navaids, or visit the George Downer Airport page at the main OurAirports website..